Location: Cul de Sac
(18.0387°N, 63.0654°W)
Time: 18:43:29
(UTC+00:00)

DMSP B5D1-3 - Pass Details

Date: 29 October 2020
Orbit: 768 x 780 km, 98.5° (Epoch: 24 November)

Event Time Altitude Azimuth Distance (km) Brightness Sun altitude
Rises 22:32:13 0° 17° (NNE) 3,255 7.5 -12.7°
Reaches altitude 10° 22:34:33 10° 20° (NNE) 2,327 6.7 -13.2°
Maximum altitude 22:39:39 64° 102° (ESE) 859 4.5 -14.4°
Drops below altitude 10° 22:44:43 10° 183° (S) 2,323 7.2 -15.6°
Sets 22:47:03 0° 186° (S) 3,249 8.0 -16.2°
